KD8UYA Weather Reports


Display with metric or nautical units.
time (UTC)temp
F
wind
direction
speed
MPH
gust
MPH
rain 1hr
in
rain 24hr
in
rain mn
in
humidity
%
barometer
mb
20260901091515 75 255 1.0 7.0 0.00 0.01 0.00 87 1012.6
20260901090014 75 251 3.0 8.0 0.00 0.01 0.00 87 1012.7
20260901084514 75 278 2.0 7.0 0.00 0.01 0.00 87 1012.7
20260901083013 75 269 2.0 5.0 0.00 0.01 0.00 87 1012.6
20260901081513 75 205 1.0 5.0 0.00 0.01 0.00 88 1012.6
20260901080012 75 256 2.0 8.0 0.00 0.01 0.00 88 1012.8
20260901074509 75 276 1.0 4.0 0.00 0.01 0.00 88 1012.8
20260901073019 75 295 1.0 4.0 0.00 0.01 0.00 88 1012.7
20260901071509 75 288 1.0 8.0 0.00 0.01 0.00 87 1012.8
20260901070015 75 273 1.0 4.0 0.00 0.01 0.00 87 1012.8
20260901064511 75 291 2.0 6.0 0.00 0.01 0.00 87 1012.9
20260901063006 75 234 1.0 7.0 0.00 0.01 0.00 87 1012.9
20260901061506 75 232 1.0 3.0 0.00 0.01 0.00 87 1012.9
20260901060004 75 264 2.0 7.0 0.00 0.01 0.00 86 1013.0
20260901054502 75 291 1.0 4.0 0.00 0.01 0.00 87 1013.2
20260901053122 75 268 0.0 3.0 0.00 0.01 0.00 87 1013.3
20260901051600 75 234 0.0 4.0 0.00 0.01 0.00 88 1013.4
20260901050059 75 210 0.0 4.0 0.00 0.01 0.00 87 1013.4
20260901044557 75 261 0.0 4.0 0.00 0.01 0.00 88 1013.4
20260901043119 74 271 1.0 4.0 0.00 0.01 0.00 89 1013.4
20260901041605 74 190 1.0 5.0 0.00 0.01 0.00 90 1013.4
20260901040054 73 250 0.0 2.0 0.00 0.01 0.00 92 1013.6
20260901034600 73 183 0.0 0.0 0.00 0.01 0.01 93 1013.7
20260901033100 73 165 0.0 3.0 0.00 0.01 0.01 93 1013.5
20260901031546 73 250 0.0 0.0 0.00 0.01 0.01 93 1013.4
20260901030047 73 251 0.0 1.0 0.00 0.01 0.01 93 1013.5
20260901024553 73 252 0.0 2.0 0.00 0.01 0.01 93 1013.3
20260901023044 73 257 0.0 0.0 0.00 0.01 0.01 92 1013.2
20260901021545 74 259 0.0 0.0 0.00 0.01 0.01 91 1013.5
20260901020044 75 259 0.0 0.0 0.00 0.01 0.01 90 1013.7
20260901014544 75 259 0.0 0.0 0.00 0.01 0.01 88 1013.7
20260901013043 76 259 0.0 1.0 0.00 0.01 0.01 87 1013.7
20260901011552 76 259 0.0 4.0 0.00 0.01 0.01 86 1013.4
20260901010045 76 176 0.0 1.0 0.00 0.01 0.01 88 1012.8
20260901004541 77 175 2.0 4.0 0.00 0.01 0.01 86 1012.9
20260901003044 78 242 0.0 7.0 0.00 0.01 0.01 84 1013.3
20260901001536 79 252 0.0 4.0 0.00 0.01 0.01 83 1013.5
20260901000035 79 262 2.0 4.0 0.00 0.01 0.01 82 1013.8
20260831234539 78 258 2.0 5.0 0.00 0.01 0.01 84 1013.9
20260831233032 78 281 0.0 0.0 0.00 0.01 0.01 86 1014.0
20260831231534 79 283 0.0 0.0 0.00 0.01 0.01 84 1014.1
20260831230033 79 285 0.0 0.0 0.00 0.01 0.01 83 1014.2
20260831224532 80 285 0.0 0.0 0.00 0.01 0.01 80 1014.3
20260831223034 81 284 0.0 0.0 0.00 0.01 0.01 80 1014.3
20260831221529 81 281 0.0 0.0 0.00 0.01 0.01 77 1014.1
20260831220031 81 281 0.0 0.0 0.00 0.01 0.01 77 1014.1
20260831214537 81 282 0.0 0.0 0.00 0.01 0.01 75 1014.1
20260831213038 82 282 0.0 0.0 0.00 0.01 0.01 71 1014.2
20260831211527 83 282 1.0 4.0 0.00 0.01 0.01 66 1014.3
20260831210026 84 257 2.0 6.0 0.00 0.01 0.01 67 1014.4
20260831204528 84 304 4.0 10.0 0.00 0.01 0.01 67 1014.3
20260831203037 83 262 3.0 7.0 0.00 0.01 0.01 71 1014.2
20260831201523 82 262 0.0 4.0 0.00 0.01 0.01 75 1014.2
20260831200026 80 265 0.0 0.0 0.00 0.01 0.01 81 1014.1
20260831194523 81 261 0.0 3.0 0.00 0.01 0.01 78 1014.1
20260831193022 82 264 1.0 6.0 0.00 0.01 0.01 71 1014.5
20260831191517 83 293 1.0 6.0 0.00 0.01 0.01 71 1014.8
20260831190018 83 254 4.0 11.0 0.00 0.01 0.01 69 1014.9
20260831184515 84 270 7.0 14.0 0.00 0.01 0.01 68 1015.0
20260831183012 83 284 4.0 8.0 0.00 0.01 0.01 72 1015.2
20260831181511 82 242 4.0 11.0 0.00 0.01 0.01 73 1015.4
20260831180009 82 287 4.0 11.0 0.00 0.01 0.01 73 1015.5
20260831174511 82 296 2.0 8.0 0.00 0.01 0.01 74 1015.5
20260831173008 83 246 1.0 8.0 0.00 0.01 0.01 75 1015.6
20260831171507 82 238 3.0 8.0 0.00 0.01 0.01 75 1015.6
20260831170010 82 272 2.0 9.0 0.00 0.02 0.01 74 1015.7
20260831164505 82 298 3.0 9.0 0.00 0.02 0.01 73 1015.7
20260831163003 83 246 2.0 5.0 0.00 0.02 0.01 73 1015.7
20260831161603 81 313 2.0 9.0 0.00 0.02 0.01 74 1015.7
20260831160123 80 300 3.0 7.0 0.00 0.02 0.01 75 1015.7
20260831154559 81 254 3.0 8.0 0.00 0.02 0.01 75 1015.7
20260831153128 80 272 3.0 10.0 0.00 0.02 0.01 74 1015.8
20260831151553 80 234 2.0 8.0 0.00 0.02 0.01 77 1015.7
20260831150049 78 315 4.0 9.0 0.00 0.02 0.01 82 1015.9
20260831144545 76 290 0.0 7.0 0.00 0.02 0.01 85 1015.9
20260831143045 75 283 0.0 4.0 0.00 0.02 0.01 88 1015.9
20260831141543 74 244 0.0 3.0 0.00 0.02 0.01 89 1016.0
20260831140037 74 262 0.0 3.0 0.00 0.02 0.01 89 1015.9
20260831134536 74 257 0.0 3.0 0.00 0.02 0.01 89 1015.8
20260831133033 74 279 2.0 4.0 0.00 0.02 0.01 88 1015.9
20260831131532 74 266 0.0 1.0 0.00 0.02 0.01 89 1015.8
20260831130024 73 261 0.0 0.0 0.00 0.02 0.01 90 1015.8
20260831124521 71 259 0.0 0.0 0.00 0.02 0.01 92 1015.8
20260831123032 71 259 0.0 0.0 0.00 0.02 0.01 93 1015.7
20260831121526 70 259 0.0 5.0 0.01 0.02 0.01 93 1015.7
20260831120032 70 199 0.0 2.0 0.01 0.02 0.01 92 1015.8
20260831114520 71 247 1.0 3.0 0.01 0.02 0.01 92 1015.8
20260831113022 71 196 0.0 3.0 0.01 0.02 0.01 91 1015.8
20260831111518 71 236 0.0 2.0 0.00 0.01 0.00 91 1015.7
20260831110017 71 210 0.0 3.0 0.00 0.01 0.00 90 1015.5
20260831104529 71 267 0.0 2.0 0.00 0.01 0.00 90 1015.3
20260831103015 71 277 1.0 3.0 0.00 0.01 0.00 90 1015.1
20260831101521 71 223 0.0 0.0 0.00 0.01 0.00 90 1015.1
20260831100023 71 231 1.0 4.0 0.00 0.01 0.00 89 1015.1
20260831094614 71 271 0.0 3.0 0.00 0.01 0.00 89 1015.0
20260831093013 71 259 0.0 0.0 0.00 0.01 0.00 89 1015.0